Probability
0 0 1 0 0 0 1 1 1 1 2 2 2 2 2 3 5 6 6 7 6 5 6 9 10 10 12 13 14 15 13 9 4 1 0 0 0 0 0 0 0 0 0 0
0 1 1 1 0 0 1 2 2 1 1 1 1 1 2 3 5 5 5 6 5 4 6 9 11 11 12 14 15 15 12 8 4 1 0 0 0 0 0 0 0 0 0 0
0 1 2 1 0 0 1 1 1 1 0 0 0 0 1 3 4 4 4 5 4 4 6 10 11 11 11 13 14 13 10 7 4 1 0 0 0 0 0 0 0 0 0 0
0 0 1 1 0 0 0 0 0 0 0 0 0 0 1 2 2 2 4 5 4 3 5 9 11 10 10 11 12 10 9 7 5 2 0 0 0 0 0 0 0 0 1 1
0 0 0 0 0 0 0 0 0 0 0 0 0 1 2 2 1 1 3 4 4 4 5 7 10 10 10 10 10 9 7 7 6 3 1 0 0 0 0 0 1 1 2 2
0 0 0 0 0 0 0 0 0 0 0 0 0 1 2 2 1 1 3 5 6 7 5 6 9 10 10 10 9 8 7 7 7 5 3 1 0 0 0 1 2 3 3 3
1 0 0 0 0 0 0 0 1 1 1 1 1 3 4 4 4 4 6 7 8 7 5 5 8 11 11 10 9 8 8 8 7 5 4 3 2 1 0 1 2 3 4 4
1 0 0 0 0 0 0 1 3 4 2 3 4 5 6 6 5 5 6 6 5 4 3 3 6 10 10 9 8 7 6 6 5 3 3 3 4 4 3 2 3 4 4 4
1 0 0 0 0 0 0 2 3 5 5 5 5 5 5 4 3 2 3 3 2 1 1 1 3 6 7 6 6 5 3 3 2 1 1 2 4 6 6 5 5 5 4 4
0 0 0 0 1 0 0 1 1 3 5 5 4 3 2 2 1 0 1 2 2 1 0 0 1 3 4 4 4 3 3 2 1 0 0 0 2 4 6 5 4 4 4 4
0 0 0 0 0 0 0 0 0 1 3 3 3 2 1 1 1 0 1 2 3 3 2 1 1 2 3 3 3 3 3 2 1 0 0 0 1 2 2 2 2 2 3 4
0 0 0 0 0 0 0 0 0 0 1 1 2 3 2 1 0 0 1 3 4 5 5 3 3 3 3 3 3 3 2 1 0 0 0 0 0 0 0 0 0 0 1 1
0 0 0 0 0 0 0 0 0 0 0 0 1 2 1 0 0 0 2 3 5 6 7 6 4 3 3 3 2 1 1 0 0 0 0 0 0 0 0 0 0 0 0 0
0 0 1 1 0 0 0 0 0 0 0 0 0 0 0 1 1 0 1 3 6 7 8 7 4 3 3 3 1 0 0 0 0 0 0 0 0 0 0 0 0 0 0 0
0 1 2 1 0 0 0 0 0 0 1 1 1 1 1 2 2 1 1 3 6 8 7 6 4 3 3 2 1 0 0 0 0 0 0 0 0 0 0 0 0 0 0 0
0 1 1 1 0 0 0 0 0 0 1 2 2 2 2 2 2 1 1 3 5 6 5 4 4 3 3 2 1 2 1 0 0 0 0 0 0 0 0 0 0 0 0 0
0 0 0 0 0 0 0 0 0 0 1 1 1 1 1 1 1 1 1 2 4 5 6 5 4 3 3 3 3 3 2 1 0 0 0 0 0 0 0 0 0 0 0 0
0 0 0 0 0 0 0 0 0 0 0 0 0 0 0 0 0 0 1 2 3 4 5 4 3 3 3 3 4 4 3 1 0 0 0 0 0 0 0 0 0 0 0 0
0 0 0 0 0 0 0 0 0 0 0 0 0 0 0 0 0 0 0 1 1 2 2 2 1 2 1 1 2 2 2 1 0 0 0 0 0 0 0 0 0 0 0 0
0 0 0 0 0 0 0 0 0 0 0 0 0 0 0 0 0 0 0 0 0 0 0 0 0 0 0 0 0 0 0 0 0 0 0 0 0 0 0 0 0 0 0 0
0 0 0 0 0 0 0 0 0 0 0 0 0 0 0 0 0 0 0 0 0 0 0 0 0 0 0 0 0 0 0 0 0 0 0 0 0 0 0 0 0 0 0 0
0 0 0 0 0 0 0 0 0 0 0 0 0 0 0 0 0 0 0 0 0 0 0 0 0 0 0 1 1 0 0 0 0 0 0 0 0 0 0 0 0 1 1 1
0 0 0 0 1 1 1 0 0 0 0 0 0 0 0 0 0 0 0 0 0 0 0 0 0 0 1 2 2 1 0 0 0 0 0 0 0 0 0 0 0 1 2 1
0 0 0 0 1 2 2 1 0 0 0 0 0 0 0 0 0 0 0 0 0 0 0 0 0 0 1 2 3 2 1 0 0 0 0 0 0 0 0 0 0 1 1 0
0 0 0 0 0 1 2 1 0 0 0 0 0 0 0 0 0 0 0 0 0 0 0 0 0 0 1 3 3 2 1 0 0 0 0 0 0 0 0 0 0 0 0 0
0 0 0 0 0 0 1 1 0 0 0 0 0 0 0 0 0 0 0 0 0 0 0 0 0 1 2 3 3 2 1 0 0 0 0 0 0 0 0 0 0 0 0 0
0 0 0 0 0 0 0 0 0 0 0 0 0 0 0 0 0 0 0 0 0 0 0 0 0 1 2 3 3 2 1 0 0 0 0 0 0 0 0 0 0 0 0 0
Wind_Speed
5 5 1 2 3 2 0 3 5 5 4 5 4 3 3 2 3 3 2 3 4 4 4 4 5 5 6 6 6 6 6 6 6 6 5 5 5 5 5 5 5 4 4 3
3 2 1 3 4 1 1 1 2 1 4 4 2 1 2 3 4 3 3 3 3 4 5 5 6 6 6 6 6 6 6 6 6 5 5 5 5 5 4 4 4 4 4 4
3 4 3 3 2 0 1 2 1 2 5 2 1 1 3 3 3 3 3 2 3 4 5 5 6 7 7 6 5 6 6 6 6 6 6 6 6 5 5 4 4 3 3 4
1 2 2 4 1 2 2 1 0 1 2 2 3 4 3 3 4 2 2 3 3 4 4 4 5 5 6 5 6 6 6 6 6 7 6 5 5 5 5 4 4 4 4 4
2 1 3 4 3 2 3 3 2 1 2 2 2 1 1 2 2 4 4 4 4 4 4 5 6 6 6 6 6 6 6 6 6 6 6 6 5 5 4 3 3 3 3 4
3 3 4 5 7 5 2 2 3 2 2 2 1 0 4 4 2 2 2 3 3 2 2 3 5 6 6 6 6 6 6 6 5 6 6 6 6 5 3 3 3 3 3 4
3 3 3 5 7 4 1 6 6 2 1 1 2 4 4 3 2 2 2 3 3 3 2 3 3 6 6 6 6 6 5 4 4 5 5 6 5 4 3 3 3 2 3 3
1 2 4 6 3 1 4 3 3 3 2 1 2 1 1 1 1 2 1 1 2 3 2 2 3 6 5 5 5 4 4 4 4 4 4 4 4 4 3 3 3 2 1 2
3 4 3 2 1 3 2 2 3 3 2 0 0 1 1 1 1 1 2 2 2 3 2 1 3 6 6 5 4 4 4 4 3 3 3 3 4 4 3 3 3 3 2 3
1 2 3 4 4 4 3 3 3 2 1 0 0 1 1 1 1 1 1 2 1 2 3 2 2 4 5 4 4 5 4 3 3 3 2 2 3 3 4 4 4 3 3 3
2 4 5 4 5 6 4 4 4 3 1 1 0 1 1 1 2 2 1 1 2 2 3 3 2 3 3 4 4 4 4 3 2 2 3 2 2 3 4 5 6 5 5 4
5 5 3 6 6 5 4 4 3 3 2 1 1 1 1 1 1 1 1 1 2 2 2 2 2 3 3 3 4 4 3 3 2 2 2 2 2 1 2 3 6 8 8 6
6 6 5 6 5 5 4 5 4 3 2 1 0 1 1 0 0 1 1 1 2 2 2 2 2 2 2 3 4 4 4 3 2 2 2 2 2 2 1 3 2 4 6 7
5 4 4 4 4 4 4 4 4 3 1 1 1 0 1 1 1 1 1 1 2 2 2 2 1 1 1 2 3 3 3 4 4 3 3 3 3 3 3 3 2 2 3 6
6 4 4 3 4 4 4 4 4 3 2 1 1 1 1 1 1 1 1 1 2 2 1 1 1 1 1 1 2 3 2 2 3 3 2 2 2 3 3 3 3 2 2 2
6 4 3 3 4 4 4 4 4 3 2 1 1 1 1 1 0 0 0 1 2 2 2 2 2 2 1 2 1 1 2 3 3 2 2 2 2 3 3 3 3 3 3 3
3 4 3 3 4 4 3 4 2 2 2 1 0 0 1 1 1 1 0 1 2 3 3 4 3 2 2 2 3 2 1 2 3 2 2 2 2 3 3 3 3 3 4 4
3 4 4 3 2 3 3 3 3 2 2 1 1 1 1 1 0 1 2 1 1 1 2 3 3 3 3 3 2 2 1 1 2 2 2 2 2 3 3 3 4 4 3 3
3 4 4 3 2 2 2 2 2 2 1 0 1 0 0 1 1 1 1 0 0 1 3 2 3 3 3 3 3 2 2 2 2 2 2 3 3 2 3 3 3 3 3 2
4 4 4 3 2 1 1 2 2 2 1 0 0 1 1 1 1 1 1 1 2 2 3 2 1 2 3 3 3 2 2 2 3 3 2 2 2 2 2 3 3 3 2 2
4 5 4 3 2 2 1 1 1 1 1 0 1 0 1 1 1 1 1 2 4 3 2 3 2 2 2 2 3 2 3 3 3 3 3 2 2 2 2 2 2 2 2 2
5 4 4 3 2 2 2 1 1 1 1 1 0 0 0 1 2 2 1 2 3 3 2 2 2 2 2 2 2 2 2 2 2 2 2 2 2 2 2 2 2 2 2 2
5 4 3 3 2 2 2 2 1 1 1 1 1 1 1 1 1 1 2 3 2 2 2 2 3 3 3 1 1 2 2 1 1 1 2 2 2 2 2 2 2 1 1 1
4 4 3 3 2 2 3 2 2 1 1 2 2 2 1 1 2 2 2 3 3 2 2 3 4 3 2 1 1 1 1 1 2 2 2 2 1 1 1 1 1 0 1 1
4 3 3 3 3 2 2 2 2 2 2 2 2 2 1 1 2 2 2 2 3 2 2 2 3 2 1 1 0 1 1 2 1 1 1 1 1 1 1 1 1 0 0 0
4 3 2 2 2 2 2 2 1 1 1 1 2 2 1 1 1 1 2 1 1 1 2 2 2 2 1 1 1 0 0 1 1 1 1 1 1 1 1 1 1 1 0 0
4 3 2 2 2 2 2 2 2 1 1 1 2 2 2 1 1 1 2 1 1 1 1 2 2 1 1 1 1 1 1 1 1 1 1 1 0 0 1 1 0 0 0 0
Wind_Direction
233 239 224 320 324 329 265 198 191 223 229 259 240 208 194 160 141 140 154 158 161 169 171 161 165 171 170 171 172 170 168 175 183 183 179 177 180 185 187 187 190 189 191 202
288 260 326 337 334 326 301 287 200 226 275 284 239 171 151 148 146 149 161 165 167 169 170 170 173 173 172 175 175 170 175 182 179 171 172 176 181 182 179 187 191 185 193 199
276 299 359 313 300 129 84 16 163 232 267 304 359 214 189 177 162 170 176 165 180 184 186 186 183 176 177 178 173 171 177 180 176 177 180 186 186 178 182 188 184 191 202 201
222 13 245 240 208 126 118 48 27 241 270 246 228 222 196 171 161 172 193 191 198 198 191 189 184 174 168 163 169 174 177 181 183 181 184 183 180 184 191 188 187 200 209 212
139 196 259 288 303 258 202 257 330 326 305 292 287 21 310 262 186 189 200 203 204 198 199 188 182 173 161 168 174 176 182 185 186 182 179 178 181 188 189 185 197 209 211 212
150 177 224 271 304 306 129 265 319 340 310 300 61 13 272 285 260 223 207 191 185 182 184 184 187 165 157 167 172 183 190 191 186 180 182 185 188 188 186 184 199 205 217 218
178 204 253 299 316 356 101 265 297 290 259 228 213 221 254 276 258 208 205 196 169 151 168 196 178 155 157 163 181 190 182 175 178 179 184 187 185 180 176 181 185 200 219 235
146 189 259 325 1 27 244 273 295 291 287 273 274 290 292 307 264 197 176 163 152 148 171 194 166 152 158 179 186 170 160 161 171 183 193 182 176 179 174 173 178 200 219 254
186 213 252 319 287 267 269 303 303 299 301 19 23 307 283 256 236 218 186 181 163 151 148 173 169 158 168 194 172 157 158 167 178 184 198 183 177 178 173 173 182 201 209 233
334 280 300 327 334 342 341 324 310 294 279 256 231 262 280 211 212 223 216 183 146 131 140 164 182 165 172 177 161 156 164 174 174 177 189 188 182 179 180 188 197 205 211 227
280 293 319 330 326 323 326 332 334 319 287 272 223 251 234 213 209 202 188 192 140 149 173 187 177 165 170 161 147 147 159 168 172 181 185 189 194 194 195 206 200 200 212 211
259 266 264 280 296 311 312 309 303 301 302 291 211 211 223 212 212 174 184 172 138 159 174 185 170 165 169 165 152 150 155 165 172 177 183 183 181 224 250 238 233 224 224 213
260 277 269 273 293 305 293 288 287 279 251 236 262 202 170 199 173 129 148 160 161 160 164 161 161 175 189 172 155 160 170 177 179 180 185 189 184 185 240 316 304 244 232 219
291 299 298 302 302 316 319 316 320 321 302 171 159 79 110 84 96 110 152 193 167 135 136 147 161 193 207 169 158 170 178 181 177 184 191 197 201 204 198 200 236 278 258 233
305 297 279 303 324 335 338 340 343 344 352 12 90 69 93 91 111 177 185 151 130 118 136 151 165 224 193 163 167 182 188 192 189 187 189 196 202 203 206 208 214 230 248 266
302 315 337 337 325 331 341 337 331 326 324 342 58 38 36 83 126 232 200 144 146 170 191 180 197 222 175 167 170 173 208 219 200 187 190 203 207 208 212 215 217 222 224 226
310 312 309 306 310 314 309 312 318 317 337 357 213 115 68 68 46 27 320 216 204 212 211 203 213 220 185 168 173 191 211 223 214 195 198 207 214 217 217 215 219 228 233 223
292 275 265 248 266 288 303 314 324 335 321 274 139 92 100 111 179 262 266 256 237 285 256 229 219 213 193 182 178 185 196 207 211 212 213 216 224 224 218 216 221 227 241 236
317 323 314 294 273 257 262 283 304 299 288 195 114 101 221 208 221 267 288 359 348 287 284 285 244 223 204 201 189 187 200 222 234 233 224 222 224 228 223 219 224 227 226 210
323 318 320 309 300 288 264 271 303 307 303 233 111 43 3 327 308 316 1 306 259 253 264 273 257 227 214 210 198 199 210 224 234 234 227 220 225 232 232 229 223 219 217 208
318 314 315 312 299 312 310 298 288 290 302 64 122 110 309 304 311 359 27 309 298 296 277 248 238 239 229 219 205 209 218 225 221 215 216 220 223 227 231 233 224 217 213 214
318 312 316 321 336 323 309 304 306 311 313 325 244 230 321 333 333 339 300 264 287 296 287 261 253 249 248 230 211 210 220 224 224 216 211 210 214 225 233 233 227 220 210 204
327 319 317 322 322 314 318 315 300 297 317 294 246 227 240 271 277 286 297 295 297 300 299 286 284 269 261 247 223 208 204 211 217 217 217 213 210 213 216 220 213 203 199 210
329 331 322 312 331 347 341 318 307 307 311 296 265 232 216 257 300 286 267 287 304 309 314 313 316 307 281 257 210 187 192 203 215 227 223 215 202 187 185 186 181 178 176 169
327 337 345 348 349 331 304 310 344 351 350 333 310 288 263 226 241 281 302 303 308 314 317 319 325 324 324 307 224 203 207 209 205 194 183 174 175 165 158 156 159 156 78 129
331 325 314 309 317 319 321 327 332 315 331 340 329 316 304 294 298 329 338 328 340 342 342 324 320 332 335 324 307 338 322 202 178 156 144 150 157 155 157 150 129 128 144 186
339 339 339 339 335 335 331 329 314 307 306 297 300 302 309 320 351 354 339 325 323 319 325 325 328 335 345 353 6 14 23 54 89 105 98 82 99 148 158 154 136 116 97 72